User: anonymous   Login
Location: Lima
(44.6384°N, 112.5920°W)
Time: 23:28:38
(UTC+00:00)
Language:

UKube-1 - Orbit

View from above orbital plane
View from above orbital plane
View from above satellite
View from above satellite

Ground track
Ground track

The orbit data is extracted from the following two-line orbital elements,

1 40074U 14037F   24109.36515403  .00012988  00000-0  12671-2 0  9990
2 40074  98.3416  35.6746 0002126 273.0765  87.0209 14.92578153529850
Epoch (UTC): 18 April 2024 08:45:49
Eccentricity: 0.0002126
inclination: 98.3416°
perigee height: 588 km
apogee height: 591 km
right ascension of ascending node: 35.6746°
argument of perigee: 273.0765°
revolutions per day: 14.92578153
mean anomaly at epoch: 87.0209°
orbit number at epoch: 52985

The dashed part of the orbit path shows where the satellite is in the earth's shadow,  

DLR